Tracking 19279 objects as of 14-Nov-2018
HD Live streaming from Space Station
objects crossing your sky now

OPS 4988 (GREB 6)

Track OPS 4988 (GREB 6) now!
10-day predictions
OPS 4988 (GREB 6) is classified as:


NORAD ID: 1271
Int'l Code: 1965-016A
Perigee: 901.3 km
Apogee: 927.7 km
Inclination: 70.1 °
Period: 103.1 minutes
Semi major axis: 7285 km
RCS: 0.6249 m2 (medium)
Launch date: March 9, 1965
Source: United States (US)
Launch site: AIR FORCE WESTERN TEST RANGE (AFWTR)
aabbcc
Your satellite tracking list
Your tracking list is empty




NASA's NSSDC Master Catalog

Two Line Element Set (TLE):
1  1271U 65016A   18318.20258733 -.00000008  00000-0  32077-4 0  9992
2  1271  70.0790 304.2592 0018126 121.0413 318.6853 13.96103352732437
Source of the keplerian elements: AFSPC